Location: New Paltz
(41.7500°N, 74.0833°W)
Time: 05:13:01
(UTC-04:00)

Daily predictions for brighter satellites

Satellite Brightness Start Highest point End
(mag) Time Altitude Azimuth Time Altitude Azimuth Time Altitude Azimuth
ATLAS 3B R/B 4.5 01:26:03 27° N 01:26:03 27° N 01:29:43 10° NNE
Cosmos 1980 Rocket 4.2 02:48:30 23° NNE 02:48:30 23° NNE 02:50:34 10° NNE
CENTAUR R/B 3.7 02:56:30 40° NNE 02:56:30 40° NNE 03:00:48 10° NE
Cosmos 2263 Rocket 4.3 02:54:34 10° N 02:56:25 20° N 02:56:25 20° N
SL-16 R/B 3.6 03:33:25 34° NNW 03:33:25 34° NNW 03:36:46 10° NNW
ARIANE 5 R/B 4.0 03:31:16 10° NNE 03:34:01 33° NNE 03:34:01 33° NNE
Cosmos 2322 Rocket 3.1 03:58:57 38° NNW 03:58:57 38° NNW 04:02:50 10° NNE
SL-16 R/B 3.1 04:04:10 39° NNW 04:04:10 39° NNW 04:08:17 10° NNE
Cosmos 1777 Rocket 4.5 04:02:42 10° NNW 04:06:50 54° N 04:06:50 54° N
Cosmos 1975 4.5 04:04:29 10° N 04:07:13 33° NE 04:07:13 33° NE
Resurs 1-4 Rocket 3.2 04:04:57 10° N 04:08:12 33° NNW 04:08:12 33° NNW
Cosmos 2219 Rocket 4.3 04:06:42 11° SE 04:10:32 21° E 04:14:37 10° NE
COSMOS 2428 3.8 04:09:53 31° SE 04:11:39 39° ESE 04:16:53 10° NE
CZ-2D R/B 3.1 04:07:05 10° N 04:10:48 36° NNW 04:10:48 36° NNW
Okean O Rocket 3.0 04:11:22 10° NNE 04:15:26 34° E 04:16:33 30° SE
Cosmos 1844 Rocket 4.1 04:11:59 10° N 04:17:10 37° ENE 04:22:18 10° SE
DELTA 2 R/B (1) 3.9 04:21:58 51° SSE 04:21:58 51° SSE 04:27:03 10° E
FALCON 9 R/B 4.5 04:17:39 41° WSW 04:23:16 60° S 05:09:04 10° ESE
Lacrosse 4 Rocket 3.7 04:26:46 16° SE 04:26:46 16° SE 04:27:39 10° SE
Cosmos 2184 Rocket 3.9 04:19:02 10° N 04:25:17 87° W 04:28:01 36° S
Cosmos 1455 Rocket 3.4 04:23:05 10° N 04:26:43 59° N 04:26:43 59° N
Cosmos 2360 Rocket 2.1 04:27:51 70° WNW 04:28:01 70° WNW 04:33:41 10° NNE
Gblst 52 Del rocket 4.3 04:27:41 38° NW 04:29:56 76° NNE 04:36:11 10° ESE
Cosmos 1980 Rocket 4.3 04:30:15 12° NW 04:30:15 12° NW 04:32:22 10° NNW
ADEOS II 2.9 04:28:56 10° NNE 04:34:02 48° E 04:37:45 18° SSE
ADEOS Rocket 3.5 04:32:42 10° N 04:37:11 35° NW 04:37:11 35° NW
Cosmos 2237 Rocket 4.4 04:34:11 10° SSE 04:38:21 21° E 04:42:32 10° NE
Cosmos 1340 3.4 04:44:18 45° N 04:44:18 45° N 04:47:03 10° N
ATLAS 5 CENTAUR R/B 3.9 04:40:14 10° NNW 04:45:40 36° NE 04:51:32 10° ESE
CENTAUR R/B 4.0 04:43:40 20° NW 04:45:42 23° NNW 04:51:13 10° NNE
USA 215 3.2 04:41:18 10° SE 04:47:52 85° NE 04:54:28 10° NW
Cosmos 2208 Rocket 4.1 04:48:51 37° SSW 04:51:07 85° ESE 04:56:36 10° NNE
Cosmos 1536 Rocket 3.5 04:53:01 62° SW 04:53:36 71° W 04:58:06 10° N
Cosmos 1666 4.2 04:50:01 10° N 04:53:39 37° ENE 04:57:16 10° SSE
USA 229 DEB 4.3 04:50:45 17° S 04:55:51 54° ESE 05:02:33 10° NE
USA 229 4.3 04:50:50 17° S 04:55:57 53° ESE 05:02:39 10° NE
PAYLOAD B 4.3 04:50:29 10° NNE 04:56:07 81° ESE 05:00:22 18° S
Cosmos 2154 Rocket 3.9 04:53:02 10° N 04:59:16 88° W 05:05:28 10° S
Cosmos 2333 Rocket 3.3 04:53:59 10° S 04:59:20 43° ESE 05:04:44 10° NE
Cosmos 1743 2.7 04:57:09 10° N 05:01:02 79° E 05:04:52 10° S
PSLV R/B 3.5 05:01:45 10° NNE 05:06:07 86° ESE 05:08:52 22° S
Cosmos 2322 4.2 05:04:46 35° W 05:06:12 41° WNW 05:11:37 10° N
MTI 3.6 05:06:50 52° S 05:07:34 81° WSW 05:10:53 10° NNW
CZ-4B R/B 2.6 05:04:06 10° N 05:07:40 61° WNW 05:08:01 57° WSW
Meteor 1-31 Rocket 4.3 05:07:22 10° NNE 05:10:54 35° E 05:14:25 10° SSE
Okean 1-7 Rocket 4.0 05:09:27 10° S 05:13:54 63° E 05:18:21 10° NNE
EO 1 Del DPAF 3.2 05:13:26 12° S 05:16:51 57° W 05:20:40 10° NNW
Nadezhda 1 Rocket 4.3 05:16:39 26° SW 05:19:39 43° WNW 05:25:25 10° N
Cosmos 2181 Rocket 4.1 05:14:35 10° S 05:20:47 83° E 05:27:07 10° N
Meteor PRIRODA 3.8 05:21:16 10° NNE 05:25:03 77° ESE 05:28:48 10° S
Cosmos 2333 4.3 05:21:51 23° SW 05:25:21 61° WNW 05:31:01 10° NNE
Cosmos 1844 3.6 05:19:52 10° NNW 05:25:39 83° WSW 05:31:21 10° SSE
Cosmos 1570 Rocket 4.4 05:24:16 27° WSW 05:26:39 43° WNW 05:31:38 10° N
Cosmos 468 Rocket 4.1 05:22:51 10° SSW 05:28:00 77° ESE 05:33:16 10° NNE
Meteor 1-13 Rocket 4.2 05:23:37 12° SSW 05:28:37 61° WNW 05:34:11 10° N
Cosmos 1898 Rocket 3.5 05:23:30 10° NNW 05:28:44 84° ENE 05:33:54 10° SSE
CZ-4B DEB 4.4 05:27:02 10° N 05:32:28 55° WNW 05:37:41 11° SSW
MOS 1 Rocket 4.4 05:28:52 10° NNW 05:32:34 23° WNW 05:33:35 22° W
Iridium 2 4.4 05:29:07 10° N 05:32:54 55° E 05:36:39 10° SSE
CZ-4B R/B 3.4 05:27:32 10° N 05:33:03 55° WNW 05:38:17 11° SW
BREEZE M DEB (TANK) 3.6 05:21:27 10° WNW 05:33:25 72° NNE 05:37:05 10° ESE
SL-16 R/B 4.4 05:30:05 10° SSE 05:34:42 26° ESE 05:39:20 10° NE
Tiangong 2 1.7 05:34:35 32° SW 05:35:15 37° SSW 05:38:10 10° SE
Cosmos 2341 Rocket 4.0 05:33:49 10° NNW 05:39:56 58° W 05:45:59 10° S
Cosmos 1238 Rocket 3.2 05:42:00 25° W 05:42:13 25° WNW 05:44:45 10° NNW
ERS-2 2.0 05:40:06 10° N 05:43:49 75° WNW 05:47:29 10° SSW
Cosmos 1980 3.8 05:39:19 10° SSW 05:44:57 83° ESE 05:50:38 10° NNE
Cosmos 2218 Rocket 4.2 05:39:48 10° N 05:46:14 82° E 05:52:33 10° S
Cosmos 858 Rocket 4.4 05:45:42 10° NNW 05:50:58 72° WSW 05:56:11 10° S
Okean O Rocket 2.9 05:48:07 10° NNW 05:51:37 23° WNW 05:54:01 15° WSW
CZ-2C R/B 4.4 05:47:37 10° SSW 05:51:41 31° W 05:55:43 10° NW
Cosmos 2219 Rocket 2.3 05:48:34 10° SW 05:54:01 54° WNW 05:59:31 10° NNE
SL-8 R/B 4.0 05:49:20 10° WNW 05:54:06 67° NNE 05:58:51 10° ESE
Cosmos 1763 Rocket 3.7 05:50:29 10° S 05:55:31 72° ESE 06:00:39 10° NNE
COSMO-SKYMED 1 3.3 05:51:36 10° SSE 05:55:51 57° ENE 06:00:08 10° N
COSMOS 2428 3.6 05:51:57 15° WSW 05:55:58 32° NW 06:01:02 10° N
Cosmos 1937 Rocket 3.5 05:52:40 10° NNW 05:58:00 76° WSW 06:03:15 10° SSE
Meteor 2-9 Rocket 4.3 05:52:57 10° NNW 05:58:30 56° W 06:03:52 10° S
Cosmos 1025 Rocket 3.2 05:54:21 10° SSW 05:58:37 52° W 06:02:56 10° N
Cosmos 1726 Rocket 3.6 05:55:11 10° N 05:59:40 87° E 06:04:07 10° S
Cosmos 1844 Rocket 3.3 05:56:04 10° NW 06:00:56 31° WSW 06:05:46 10° SSW
NOSS 0 Rocket 3.9 05:55:09 10° SSW 06:01:19 71° WNW 06:07:29 10° NNE
Meteor 1-23 Rocket 4.3 05:56:05 10° SSW 06:01:49 63° WNW 06:07:34 10° N
GENESIS II 4.3 05:57:50 10° SW 06:01:54 76° NW 06:06:00 10° NNE
Cosmos 1437 2.8 06:00:19 10° SSW 06:03:33 60° WNW 06:06:48 10° N
Okean-O 2.7 06:01:14 10° N 06:05:35 56° WNW 06:09:55 10° SSW
SJ-6F 4.4 06:02:32 10° N 06:06:36 70° WNW 06:10:39 10° SSW
DELTA 2 R/B (1) 3.7 06:02:43 12° W 06:07:55 72° S 06:13:27 10° E
Meteor 1-28 Rocket 3.9 06:05:08 10° SSE 06:08:53 61° ENE 06:12:40 10° N
Cosmos 1892 Rocket 3.5 06:04:55 10° S 06:09:16 80° W 06:13:39 10° N
Cosmos 841 Rocket 3.7 06:04:17 10° SSW 06:09:25 78° ESE 06:14:35 10° NNE
NOAA 6 4.0 06:06:04 10° NNE 06:11:12 83° WNW 06:16:19 10° SSW
Cosmos 2360 Rocket 4.1 06:10:44 10° WNW 06:13:06 13° NW 06:15:30 10° NNW
ADEOS II 3.3 06:09:24 10° NNW 06:13:25 23° WNW 06:17:26 10° WSW
Cosmos 2285 Rocket 4.3 06:07:11 10° SW 06:13:25 51° WNW 06:19:42 10° N
EXPRESS MD2 3.7 06:08:53 10° SW 06:13:27 50° SSE 06:16:04 10° ENE
CZ-4C R/B 4.1 06:08:55 10° NNW 06:15:34 43° NE 06:22:55 10° ESE
Cosmos 2278 Rocket 2.3 06:11:10 10° NNW 06:16:43 57° WSW 06:22:14 10° S
Cosmos 2298 Rocket 4.4 06:12:18 10° NW 06:17:17 41° WSW 06:22:14 10° S
Cosmos 1814 Rocket 4.2 06:15:14 10° SW 06:20:15 49° WNW 06:25:16 10° N
Cosmos 2237 Rocket 2.4 06:16:23 10° SW 06:21:57 55° WNW 06:27:34 10° NNE
Cosmos 1441 Rocket 3.2 06:18:44 10° SSW 06:22:41 77° W 06:26:42 10° N
Aureole 2 Rocket 3.3 06:22:05 10° SW 06:25:20 31° WNW 06:28:21 10° N
